TimeCST,TemperatureF,Dew PointF,Humidity,Sea Level PressureIn,VisibilityMPH,Wind Direction,Wind SpeedMPH,Gust SpeedMPH,PrecipitationIn,Events,Conditions,WindDirDegrees,DateUTC
12:53 AM,42.1,28.9,60,29.86,10.0,SW,9.2,-,N/A,,Clear,230,2011-12-22 06:53:00
1:53 AM,39.9,28.0,63,29.88,10.0,SW,10.4,-,N/A,,Clear,230,2011-12-22 07:53:00
2:53 AM,37.9,28.0,68,29.88,10.0,SW,13.8,-,N/A,,Clear,220,2011-12-22 08:53:00
3:53 AM,39.0,28.0,65,29.89,10.0,SW,11.5,-,N/A,,Clear,220,2011-12-22 09:53:00
4:53 AM,37.9,28.0,68,29.90,10.0,SW,11.5,-,N/A,,Clear,220,2011-12-22 10:53:00
5:53 AM,37.0,28.0,70,29.93,10.0,SW,11.5,-,N/A,,Clear,220,2011-12-22 11:53:00
6:53 AM,37.0,28.0,70,29.96,10.0,SW,12.7,-,N/A,,Clear,220,2011-12-22 12:53:00
8:53 AM,39.9,28.9,65,30.07,10.0,NNW,6.9,-,N/A,,Clear,340,2011-12-22 14:53:00
9:53 AM,46.9,30.9,54,30.09,10.0,West,5.8,-,N/A,,Clear,270,2011-12-22 15:53:00
10:53 AM,48.0,32.0,54,30.12,10.0,North,13.8,-,N/A,,Clear,350,2011-12-22 16:53:00
11:53 AM,48.0,28.9,48,30.11,10.0,NNW,11.5,-,N/A,,Clear,340,2011-12-22 17:53:00
12:53 PM,50.0,27.0,41,30.10,10.0,NNW,11.5,17.3,N/A,,Clear,330,2011-12-22 18:53:00
1:53 PM,51.1,26.1,38,30.08,10.0,NNW,11.5,-,N/A,,Clear,330,2011-12-22 19:53:00
2:53 PM,52.0,25.0,35,30.08,10.0,NNW,4.6,-,N/A,,Clear,340,2011-12-22 20:53:00
3:53 PM,51.1,23.0,33,30.08,10.0,North,9.2,-,N/A,,Clear,350,2011-12-22 21:53:00
4:53 PM,51.1,24.1,35,30.10,10.0,NNE,9.2,-,N/A,,Clear,20,2011-12-22 22:53:00
5:53 PM,46.9,27.0,46,30.13,10.0,NNE,10.4,-,N/A,,Clear,30,2011-12-22 23:53:00
6:53 PM,45.0,28.0,52,30.16,10.0,NE,12.7,-,N/A,,Overcast,50,2011-12-23 00:53:00
9:53 PM,39.9,28.9,65,30.22,10.0,ENE,11.5,-,N/A,,Overcast,60,2011-12-23 03:53:00
10:14 PM,39.2,28.4,65,30.26,10.0,NE,10.4,-,N/A,,Overcast,40,2011-12-23 04:14:00
10:53 PM,37.9,30.0,73,30.24,10.0,ENE,13.8,-,N/A,,Overcast,60,2011-12-23 04:53:00
11:53 PM,36.0,28.9,76,30.25,10.0,ENE,10.4,-,N/A,,Overcast,60,2011-12-23 05:53:00